Showing default

AL YAH 3, 43174

Orbit data source: Space-Track

AL YAH 3, 43174 is a payload satellite owned by Yahsat Brasil (AE) in GEO that was launched on Thu, 25 Jan 2018 UTC via an ARIANE 5ECA launch vehicle from the French Guiana (FRGUI). Payload-class satellites include a variety of spacecraft equipped with specific instruments for various scientific and technological missions. These include communications satellites like Starlink; space stations such as the ISS; scientific satellites like the Hubble; Earth observation satellites from companies like Planet Labs, Umbra, and HawkEye 360; GPS; miniature CubeSats for education and research; and military/defense satellites.

Not visible in the next 10 days
Identifier
43174, 2018-012A
Orbit
GEO
Last TLE update
11 hours ago
Origin
Manufacturer
OATK SSG
Mission
Operational Commercial Communications
Bus & Motor
STAR-2.3?, IHI BT-4
Mass
3,795 kg wet, ~2,500 kg dry
Launch date (UTC)
2018-01-25 (7 years ago)
Launch vehicle
ARIANE 5ECA
Launch site
French Guiana (FRGUI)
Object type
Payload
Rocket body
Debris
Shape & HBR
Box + 2 Pan, 18 m
Radar Cross Section
20.597 m², Large (>1 m²)

Expand to show TLE details & history

TLE from 11 hours ago
0 AL YAH 3
1 43174U 18012A   25189.84451402 -.00000140  00000-0  00000-0 0  9990
2 43174   0.6618  87.6741 0004138   6.8137 116.4733  1.00272539 27403
Epoch: 2025-07-08T20:16Z
TLE epoch observation values (Epoch: 2025-07-08T20:16:06.011Z)
Latitude
0.5496°
Longitude
-20.05029°
Altitude
35,793.607 km
Speed
3.074 km/s
True Right ascension
14h 04m 02s
True Declination
0° 32' 57"
Sunlit
Object was in daylight at epoch
Visualization orbit readout
Latitude
-0.65466°
Longitude
138.99413°
Altitude
35,784.299 km
Speed
3.075 km/s
Apparent Right ascension
01h 06m 53s
Apparent Declination
-6° 11' 01"
Sunlit
Object is in daylight
Visualization observer readout
Local Sidereal Time
19:00:17
Azimuth
93.7° ESE
Elevation
-5.224°
Doppler factor
1
Orbital elements
Apogee altitude
35,804.902 km
Perigee altitude
35,770.006 km
Semi-major axis
42,165.591 km
Eccentricity
0.00041
Inclination
0.6618°
RAAN
87.6741°
Arg. of periapsis
6.8137°
True anomaly
Unknown
Mean anomaly
116.4733°
Eccentric anomaly
Unknown
Mean motion
0.25067 °/min
Orbital period
1,436.14 mins
BSTAR
0
Loading historical data...
43174 neighbors
Loading maneuver chart data...
Loading SW <> Apogee altitude chart data...
Loading historical data...
Loading historical data...
Loading historical data...
Loading historical data...
Loading historical data...
Loading historical data...
Loading historical data...
Other satellites on launch #12 in the year 2018 (2018-01-25 UTC)

AL YAH 3 Visibility

Observer location: undefined°, undefined°

AL YAH 3 is likely not visible in the next few days
Span
Click to sort rows by Start time (UTC) header in descending order
Start Az.
Max El. time (UTC)
Max El. Az.
Max El.
End time (UTC)
End Az.
|